Kailua Kona, HI

1:36 PM HST on February 25, 2017 (GMT -1000)
Kona International At Keahole

Weather History for PHKO - October, 2012

Change the Weather History Date:

Wednesday, October 24, 2012

  Actual Average Record
Temperature  
Mean Temperature 81 °F -  
Max Temperature 84 °F 83 °F 90 °F (1982)
Min Temperature 78 °F 72 °F 71 °F (1988)
Cooling Degree Days 16    
Growing Degree Days 31 (Base 50)    
Moisture  
Dew Point 71 °F    
Average Humidity 71    
Maximum Humidity 79    
Minimum Humidity 59    
Precipitation  
Precipitation 0.00 in - - ()
Sea Level Pressure  
Sea Level Pressure 29.88 in    
Wind  
Wind Speed 6 mph (WSW)    
Max Wind Speed 14 mph    
Max Gust Speed -    
Visibility 10 miles    
Events      
Averages and records for this station are not official NWS values.
T = Trace of Precipitation, MM = Missing Value Source: NWS Daily Summary

Daily Weather History Graph

Daily Weather History Graph

Search for Another Location

Airport or City:

Trip Planner

Search our weather history database for the weather conditions in past years. The results will help you decide how hot, cold, wet, or windy it might be!

Date:

Astronomy

Oct. 24, 2012 Rise Set
Actual Time 6:22 AM HST 5:54 PM HST
Civil Twilight 5:59 AM HST 6:16 PM HST
Nautical Twilight 5:33 AM HST 6:42 PM HST
Astronomical Twilight 5:08 AM HST 7:08 PM HST
Moon 2:44 PM HST (10/24) 2:04 AM HST (10/24)
Length of Visible Light 12h 16m
Length of Day
11h 31m
Waxing Gibbous, 78% of the Moon is Illuminated
Oct 24
Waxing Gibbous
Oct 29
Full
Nov 6
Last Quarter
Nov 13
New
Nov 20
First Quarter

Hourly Weather History & Observations

Time (HST) Temp. Heat Index Dew Point Humidity Pressure Visibility Wind Dir Wind Speed Gust Speed Precip Events Conditions
12:53 AM 80.1 °F 83.2 °F 70.0 °F 71% 29.90 in 10.0 mi Calm Calm - N/A   Overcast
1:53 AM 80.1 °F 83.6 °F 71.1 °F 74% 29.88 in 10.0 mi Calm Calm - N/A   Mostly Cloudy
2:08 AM 78.8 °F - 69.8 °F 74% 29.88 in 10.0 mi SE 4.6 mph - N/A   Mostly Cloudy
2:53 AM 79.0 °F - 70.0 °F 74% 29.86 in 10.0 mi ESE 5.8 mph - N/A   Overcast
3:53 AM 79.0 °F - 70.0 °F 74% 29.86 in 10.0 mi ESE 3.5 mph - N/A   Overcast
4:53 AM 78.1 °F - 69.1 °F 74% 29.86 in 10.0 mi East 3.5 mph - N/A   Mostly Cloudy
5:53 AM 79.0 °F - 69.1 °F 72% 29.87 in 10.0 mi SSE 5.8 mph - N/A   Overcast
6:53 AM 78.1 °F - 69.1 °F 74% 29.89 in 10.0 mi SE 8.1 mph - N/A   Partly Cloudy
7:30 AM 80.6 °F 84.6 °F 71.6 °F 74% 29.89 in 10.0 mi SSE 6.9 mph - N/A   Overcast
7:53 AM 81.0 °F 84.9 °F 71.1 °F 72% 29.90 in 10.0 mi South 8.1 mph - N/A   Mostly Cloudy
8:48 AM 82.4 °F 87.2 °F 71.6 °F 70% 29.90 in 10.0 mi South 8.1 mph - N/A   Scattered Clouds
8:53 AM 82.0 °F 86.3 °F 71.1 °F 69% 29.90 in 10.0 mi South 8.1 mph - N/A   Scattered Clouds
9:11 AM 82.4 °F 87.2 °F 71.6 °F 70% 29.90 in 10.0 mi SSW 8.1 mph - N/A   Mostly Cloudy
9:41 AM 82.4 °F 87.2 °F 71.6 °F 70% 29.91 in 10.0 mi SW 6.9 mph - N/A   Overcast
9:53 AM 82.0 °F 86.3 °F 71.1 °F 69% 29.91 in 10.0 mi SSW 8.1 mph - N/A   Overcast
10:53 AM 84.9 °F 89.4 °F 70.0 °F 61% 29.89 in 10.0 mi South 8.1 mph - N/A   Scattered Clouds
11:53 AM 84.9 °F 89.4 °F 70.0 °F 61% 29.88 in 10.0 mi WSW 8.1 mph - N/A   Scattered Clouds
12:53 PM 82.9 °F 86.5 °F 69.1 °F 63% 29.86 in 10.0 mi West 8.1 mph - N/A   Mostly Cloudy
1:53 PM 84.9 °F 89.4 °F 70.0 °F 61% 29.83 in 10.0 mi West 8.1 mph - N/A   Partly Cloudy
2:53 PM 84.9 °F 89.4 °F 70.0 °F 61% 29.82 in 10.0 mi WNW 9.2 mph - N/A   Clear
3:53 PM 84.9 °F 88.8 °F 69.1 °F 59% 29.82 in 10.0 mi NW 13.8 mph - N/A   Mostly Cloudy
4:53 PM 82.9 °F 87.5 °F 71.1 °F 67% 29.83 in 10.0 mi NNW 10.4 mph - N/A   Partly Cloudy
5:53 PM 82.0 °F 85.9 °F 70.0 °F 67% 29.84 in 10.0 mi NW 9.2 mph - N/A   Overcast
6:53 PM 82.0 °F 86.7 °F 72.0 °F 71% 29.86 in 10.0 mi WNW 9.2 mph - N/A   Overcast
7:04 PM 80.6 °F 84.6 °F 71.6 °F 74% 29.86 in 10.0 mi NW 10.4 mph - N/A   Overcast
7:53 PM 81.0 °F 85.2 °F 72.0 °F 74% 29.88 in 10.0 mi NW 10.4 mph - N/A   Overcast
8:46 PM 80.6 °F 84.6 °F 71.6 °F 74% 29.90 in 10.0 mi WNW 11.5 mph - N/A   Overcast
8:53 PM 80.1 °F 83.8 °F 72.0 °F 76% 29.91 in 10.0 mi WNW 9.2 mph - N/A   Mostly Cloudy
9:53 PM 80.1 °F 83.8 °F 72.0 °F 76% 29.91 in 10.0 mi WNW 8.1 mph - N/A   Scattered Clouds
10:53 PM 80.1 °F 83.8 °F 72.0 °F 76% 29.91 in 10.0 mi West 9.2 mph - N/A   Clear
11:50 PM 80.6 °F 85.4 °F 73.4 °F 79% 29.91 in 10.0 mi WSW 5.8 mph - N/A   Mostly Cloudy
11:53 PM 80.1 °F 84.2 °F 73.0 °F 79% 29.91 in 10.0 mi WSW 6.9 mph - N/A   Mostly Cloudy